TimeWET,TemperatureF,Dew PointF,Humidity,Sea Level PressureIn,VisibilityMPH,Wind Direction,Wind SpeedMPH,Gust SpeedMPH,PrecipitationIn,Events,Conditions,WindDirDegrees,DateUTC
12:00 AM,57,55,90,30.12,5,Calm,Calm,,,,Scattered Clouds,,2013-04-11 00:00:00
12:00 AM,57.2,55.4,94,30.09,5.0,Calm,Calm,-,N/A,,Partly Cloudy,0,2013-04-11 00:00:00
1:00 AM,57.2,55.4,94,30.09,4.3,Calm,Calm,-,N/A,,Partly Cloudy,0,2013-04-11 01:00:00
2:00 AM,59.0,57.2,94,30.06,0.3,Calm,Calm,-,N/A,,Unknown,0,2013-04-11 02:00:00
3:00 AM,60,58,90,30.07,1,Calm,Calm,,,,,,2013-04-11 03:00:00
3:00 AM,59.0,57.2,94,30.06,0.9,Calm,Calm,-,N/A,,Unknown,0,2013-04-11 03:00:00
4:00 AM,59.0,57.2,94,30.04,0.6,Calm,Calm,-,N/A,,Unknown,0,2013-04-11 04:00:00
4:32 AM,59.0,57.2,94,30.04,0.5,Calm,Calm,-,N/A,Fog,Fog,0,2013-04-11 04:32:00
4:56 AM,59.0,57.2,94,30.04,0.5,Calm,Calm,-,N/A,Fog,Fog,0,2013-04-11 04:56:00
5:00 AM,59.0,57.2,94,30.04,0.5,Calm,Calm,-,N/A,Fog,Fog,0,2013-04-11 05:00:00
5:37 AM,59.0,57.2,94,30.04,0.5,Calm,Calm,-,N/A,Fog,Fog,0,2013-04-11 05:37:00
5:41 AM,59.0,57.2,94,30.04,0.5,Calm,Calm,-,N/A,Fog,Fog,0,2013-04-11 05:41:00
5:49 AM,59.0,57.2,94,30.04,0.2,Calm,Calm,-,N/A,Fog,Fog,0,2013-04-11 05:49:00
5:52 AM,59.0,57.2,94,30.04,0.2,Calm,Calm,-,N/A,Fog,Fog,0,2013-04-11 05:52:00
6:00 AM,58,57,94,30.06,0,Calm,Calm,,,Fog,Patches of Fog,,2013-04-11 06:00:00
6:00 AM,59.0,57.2,94,30.04,0.2,Calm,Calm,-,N/A,Fog,Fog,0,2013-04-11 06:00:00
6:45 AM,59.0,57.2,94,30.06,0.2,Calm,Calm,-,N/A,Fog,Fog,0,2013-04-11 06:45:00
6:54 AM,59.0,57.2,94,30.06,0.2,Calm,Calm,-,N/A,Fog,Fog,0,2013-04-11 06:54:00
7:00 AM,59.0,57.2,94,30.06,0.2,Calm,Calm,-,N/A,Fog,Fog,0,2013-04-11 07:00:00
7:50 AM,59.0,59.0,100,30.06,0.7,WSW,3.5,-,N/A,,Overcast,250,2013-04-11 07:50:00
8:00 AM,59.0,57.2,94,30.06,0.7,WSW,3.5,-,N/A,,Overcast,250,2013-04-11 08:00:00
8:50 AM,60.8,59.0,94,30.09,3.1,Variable,2.3,-,N/A,,Overcast,0,2013-04-11 08:50:00
9:00 AM,61,59,90,30.10,3,South,1.2,,,,Partly Cloudy,190,2013-04-11 09:00:00
9:00 AM,60.8,59.0,94,30.09,3.1,Variable,1.2,-,N/A,,Overcast,0,2013-04-11 09:00:00
10:00 AM,64.4,60.8,88,30.09,3.1,WSW,3.5,-,N/A,,Mostly Cloudy,240,2013-04-11 10:00:00
10:40 AM,68.0,59.0,73,30.09,3.7,WSW,4.6,-,N/A,,Scattered Clouds,250,2013-04-11 10:40:00
11:00 AM,68.0,59.0,73,30.09,3.7,WSW,4.6,-,N/A,,Scattered Clouds,250,2013-04-11 11:00:00
12:00 PM,72,61,59,30.08,5,West,6.9,,,,Partly Cloudy,260,2013-04-11 12:00:00
12:00 PM,71.6,59.0,64,30.06,5.0,West,6.9,-,N/A,,Scattered Clouds,260,2013-04-11 12:00:00
1:00 PM,69.8,59.0,68,30.06,6.2,West,15.0,-,N/A,,Partly Cloudy,280,2013-04-11 13:00:00
2:00 PM,71.6,59.0,64,30.06,5.0,West,15.0,-,N/A,,Scattered Clouds,280,2013-04-11 14:00:00
3:00 PM,71,58,56,30.02,6,West,11.5,,,,Clear,260,2013-04-11 15:00:00
3:00 PM,71.6,59.0,64,30.01,-9999.0,West,11.5,-,N/A,,Clear,260,2013-04-11 15:00:00
4:00 PM,69.8,59.0,68,30.01,-9999.0,WSW,11.5,-,N/A,,Clear,240,2013-04-11 16:00:00
5:00 PM,68.0,57.2,68,30.01,-9999.0,SW,10.4,-,N/A,,Clear,230,2013-04-11 17:00:00
6:00 PM,66,58,68,30.02,6,SW,10.4,,,,Clear,220,2013-04-11 18:00:00
6:00 PM,66.2,57.2,73,30.01,-9999.0,SW,10.4,-,N/A,,Clear,220,2013-04-11 18:00:00
7:00 PM,62.6,57.2,82,30.04,-9999.0,SSW,6.9,-,N/A,,Clear,210,2013-04-11 19:00:00
8:00 PM,62.6,57.2,82,30.04,-9999.0,South,5.8,-,N/A,,Clear,190,2013-04-11 20:00:00
9:00 PM,62,58,81,30.07,6,South,4.6,,,,Mostly Cloudy,190,2013-04-11 21:00:00
9:00 PM,62.6,57.2,82,30.06,6.2,SSW,4.6,-,N/A,,Scattered Clouds,200,2013-04-11 21:00:00
10:00 PM,62.6,57.2,82,30.06,6.2,Variable,2.3,-,N/A,,Scattered Clouds,0,2013-04-11 22:00:00
11:00 PM,62.6,57.2,82,30.06,6.2,Calm,Calm,-,N/A,,Scattered Clouds,0,2013-04-11 23:00:00